[[{"header":{"parameterUnit":"m.s-1","parameterCategory":1,"la1":30.2991,"la2":30.254,"lo1":-89.0895,"lo2":-89.0444,"dy":0.0017,"dx":0.0017,"nx":28,"ny":28,"refTime":"2024-06-02T03:00:00:Z","depth":0,"parameterNumber":2,"parameterNumberName":"U-component_of_WINDS"},"data":[0,0,0,0,0,0,0,0,0,0,0,0,0,0,0,0,0,0,0,0,0,0,0,0,0,0,0,0,0,0,0,0,0,0,0,0,0,0,0,0,0,0,0,0,0,0,0,0,0,0,0,0,0,0,0,0,0,0,-3.02,-3.0201,0,-3.0268,-3.0269,-3.0269,-3.0202,-3.0199,-3.0196,-3.0194,-3.0264,-3.0268,-3.0272,0,0,0,0,0,0,0,0,0,0,0,0,0,-3.0015,-3.0019,-3.02,-3.0201,-3.0202,-3.0268,-3.0269,-3.027,-3.0202,-3.0199,-3.0196,-3.0193,-3.0262,-3.0267,-3.0273,0,0,0,0,0,0,0,0,0,0,0,0,0,-3.009,-3.002,-3.02,-3.0176,-3.0175,-3.0267,-3.0269,-3.027,-3.0203,-3.0199,-3.0195,-3.0191,-3.0261,-3.0267,-3.0273,-3.0393,0,0,-3.0293,-3.0296,0,0,0,0,0,0,0,0,-3.0086,-3.0097,-3.0179,-3.0178,-3.0176,-3.0222,-3.0229,-3.0311,-3.0204,-3.0192,-3.0194,-3.0189,-3.0253,-3.026,-3.0281,-3.0396,-3.0399,-3.0294,-3.0298,-3.03,-3.0302,0,0,0,0,0,0,0,-3.0081,-3.0094,-3.0227,-3.018,-3.0179,-3.0163,-3.0169,-3.0244,-3.0244,-3.0193,-3.0188,-3.0197,-3.0252,-3.0275,-3.0283,-3.04,-3.0294,-3.0299,-3.0303,-3.0306,-3.062,-3.0624,0,0,0,0,0,0,-3.0078,-3.009,-3.0225,-3.0229,-3.012,-3.0169,-3.0176,-3.0212,-3.0243,-3.0244,-3.02,-3.0194,-3.0266,-3.0275,-3.0285,-3.0428,-3.03,-3.0307,-3.031,-3.0616,-3.0621,-3.0626,0,0,0,0,0,0,-3.0074,-3.0091,-3.0222,-3.0158,-3.0174,-3.0177,-3.0217,-3.0215,-3.0238,-3.0249,-3.0249,-3.0224,-3.0263,-3.0276,-3.0367,-3.043,-3.0309,-3.0315,-3.061,-3.0617,-3.0623,-3.0716,0,0,0,0,0,0,-3.0069,-3.009,-3.0134,-3.016,-3.0177,-3.0303,-3.0221,-3.0219,-3.025,-3.0242,-3.0271,-3.0272,-3.0261,-3.0358,-3.0374,-3.0437,-3.032,-3.0605,-3.0613,-3.0621,-3.0707,-3.0725,-3.074,0,0,0,0,0,-3.0063,-3.0157,-3.0137,-3.0154,-3.0233,-3.0306,-3.0316,-3.0302,-3.0255,-3.0301,-3.0308,-3.0271,-3.0421,-3.0368,-3.0385,-3.0451,-3.0601,-3.0611,-3.0621,-3.07,-3.0721,-3.074,0,0,0,0,0,0,-3.0138,-3.016,-3.0138,-3.0243,-3.0274,-3.0295,-3.0351,-3.0325,-3.0369,-3.0359,-3.0339,-3.0347,-3.0444,-3.0457,-3.0397,-3.057,-3.0503,-3.0517,-3.0558,-3.0578,-3.0594,-3.0589,-3.0326,0,0,0,0,0,-3.0167,-3.0225,-3.024,-3.0332,-3.0348,-3.0348,-3.0379,-3.0365,-3.0396,-3.0408,-3.0422,-3.0454,-3.0508,-3.0544,-3.0594,-3.071,-3.0716,-3.0764,-3.078,-3.0793,-3.0805,-3.0869,-3.0891,-3.0659,-3.0659,-3.0658,0,0,-3.0227,-3.0246,-3.0283,-3.0348,-3.0369,-3.043,-3.0359,-3.0425,-3.047,-3.0418,-3.0506,-3.0518,-3.0552,-3.0657,-3.0703,-3.067,-3.0871,-3.0806,-3.0817,-3.0821,-3.0882,-3.0904,-3.0923,-3.0665,-3.0664,-3.0663,0,0,-3.0368,-3.0388,-3.0467,-3.0491,-3.0526,-3.0525,-3.0545,-3.0571,-3.0577,-3.0665,-3.0628,-3.0682,-3.0775,-3.0802,-3.0827,-3.0983,-3.0951,-3.1,-3.1085,-3.1147,-3.1165,-3.1182,-3.1238,-3.1258,-3.1012,-3.1012,-3.1012,0,-3.0438,-3.0527,-3.0511,-3.0581,-3.0611,-3.0568,-3.0649,-3.0674,-3.0723,-3.0745,-3.0708,-3.0826,-3.0846,-3.0957,-3.0995,-3.1017,-3.104,-3.0995,-3.1164,-3.118,-3.1195,-3.1248,-3.1269,-3.1018,-3.1017,-3.1017,-3.1016,0,-3.0612,-3.0675,-3.0735,-3.0785,-3.0822,-3.0897,-3.0893,-3.0933,-3.0918,-3.0922,-3.1013,-3.1036,-3.1091,-3.1117,-3.1102,-3.1227,-3.1206,-3.1167,-3.1099,-3.1223,-3.1273,-3.1293,-3.1026,-3.1024,-3.1022,-3.1021,0,0,-3.0798,-3.0841,-3.0863,-3.0886,-3.0924,-3.0972,-3.1047,-3.1101,-3.1136,-3.1173,-3.1236,-3.1318,-3.1283,-3.1312,-3.13,-3.1356,-3.1479,-3.131,-3.1311,-3.1341,-3.1619,-3.1648,-3.1672,-3.1459,-3.1463,-3.1466,-3.1617,0,-3.094,-3.1068,-3.1058,-3.118,-3.1239,-3.1202,-3.1267,-3.1297,-3.1304,-3.1356,-3.1364,-3.1422,-3.1372,-3.1389,-3.1442,-3.1452,-3.1534,-3.1441,-3.1517,-3.152,-3.1509,-3.1697,-3.1727,-3.1868,-3.1636,-3.1639,-3.1642,0,-3.1121,-3.1165,-3.1294,-3.1325,-3.1349,-3.1407,-3.1458,-3.1508,-3.1543,-3.1544,-3.158,-3.1559,-3.1636,-3.1568,-3.1675,-3.1612,-3.1643,-3.1653,-3.1658,-3.1664,-3.1587,-3.1708,-3.1913,-3.1934,-3.1672,-3.1669,-3.1667,0,-3.1245,-3.1337,-3.1426,-3.1447,-3.1485,-3.1527,-3.1545,-3.1576,-3.1611,-3.1656,-3.1679,-3.1732,-3.1761,-3.1804,-3.1799,-3.175,-3.1908,-3.1839,-3.1912,-3.1912,-3.1945,-3.1943,-3.2157,-3.1967,-3.1966,-3.1966,-3.1965,0,-3.1403,-3.1483,-3.1482,-3.1537,-3.1626,-3.1615,-3.1704,-3.1717,-3.1746,-3.1803,-3.1775,-3.183,-3.1821,-3.1877,-3.1874,-3.1963,-3.1976,-3.198,-3.1978,-3.1982,-3.1982,-3.2001,-3.1991,-3.1971,-3.197,-3.1969,-3.1968,0,-3.1555,-3.1557,-3.1652,-3.1682,-3.1691,-3.1756,-3.1781,-3.1834,-3.184,-3.1914,-3.193,-3.194,-3.2004,-3.2004,-3.2077,-3.2076,-3.2185,-3.2172,-3.2173,-3.217,-3.2243,-3.2236,-3.2476,-3.2508,-3.2297,-3.2299,-3.2301,0,-3.1655,-3.1716,-3.1753,-3.179,-3.1811,-3.187,-3.1906,-3.1898,-3.1937,-3.1984,-3.2031,-3.2093,-3.2142,-3.2247,-3.226,-3.2317,-3.2305,-3.2386,-3.2313,-3.2316,-3.2307,-3.2303,-3.2309,-3.2399,-3.2402,-3.2404,-3.2405,0,-3.1833,-3.1832,-3.1885,-3.1939,-3.1983,-3.2025,-3.2064,-3.2096,-3.2093,-3.2138,-3.2204,-3.2242,-3.2318,-3.238,-3.2436,-3.2455,-3.2431,-3.2429,-3.2448,-3.2452,-3.245,-3.2453,-3.2211,-3.2422,-3.2421,-3.2419,-3.2419,-3.2418,-3.1962,-3.2015,-3.2051,-3.2111,-3.214,-3.2178,-3.2229,-3.2243,-3.2298,-3.2359,-3.2352,-3.2425,-3.2462,-3.2534,-3.2559,-3.2617,-3.2589,-3.2618,-3.2625,-3.2632,-3.264,-3.2442,-3.2627,-3.2627,-3.2626,-3.2626,-3.2626,0,-3.2139,-3.216,-3.2216,-3.2272,-3.2321,-3.2295,-3.2337,-3.2379,-3.2445,-3.2481,-3.2531,-3.2608,-3.2669,-3.2689,-3.2749,-3.2792,-3.2782,-3.2808,-3.2804,-3.2809,-3.2661,-3.2638,-3.2815,-3.2815,-3.2815,-3.2815,-3.2815,-3.2814,-3.2236,-3.2325,-3.233,-3.2434,-3.2455,-3.2527,-3.2554,-3.259,-3.2619,-3.2706,-3.2757,-3.277,-3.2801,-3.2864,-3.2919,-3.2924,-3.2947,-3.2977,-3.2977,-3.2838,-3.2819,-3.2801,-3.2779,-3.2983,-3.2983,-3.312,-3.3122,-3.3122]},{"header":{"parameterUnit":"m.s-1","parameterCategory":1,"la1":30.2991,"la2":30.254,"lo1":-89.0895,"lo2":-89.0444,"dy":0.0017,"dx":0.0017,"nx":28,"ny":28,"refTime":"2024-06-02T03:00:00:Z","depth":0,"parameterNumber":3,"parameterNumberName":"V-component_of_WINDS"},"data":[0,0,0,0,0,0,0,0,0,0,0,0,0,0,0,0,0,0,0,0,0,0,0,0,0,0,0,0,0,0,0,0,0,0,0,0,0,0,0,0,0,0,0,0,0,0,0,0,0,0,0,0,0,0,0,0,0,0,1.5375,1.5376,0,1.5487,1.5488,1.5489,1.558,1.5581,1.5582,1.5582,1.5698,1.5701,1.5703,0,0,0,0,0,0,0,0,0,0,0,0,0,1.5242,1.5244,1.5375,1.5376,1.5378,1.5487,1.5488,1.549,1.558,1.5581,1.5582,1.5583,1.5698,1.57,1.5703,0,0,0,0,0,0,0,0,0,0,0,0,0,1.5321,1.5244,1.5375,1.5436,1.5442,1.5486,1.5488,1.549,1.5579,1.5581,1.5582,1.5583,1.5697,1.57,1.5703,1.5696,0,0,1.5714,1.5715,0,0,0,0,0,0,0,0,1.5316,1.5326,1.5425,1.5431,1.5439,1.5521,1.5484,1.5559,1.5579,1.5527,1.5582,1.5584,1.5638,1.5646,1.5665,1.5702,1.5707,1.5714,1.5716,1.5717,1.5718,0,0,0,0,0,0,0,1.5311,1.5322,1.5419,1.5427,1.5435,1.5458,1.5471,1.5499,1.5574,1.5532,1.5539,1.5551,1.5642,1.5661,1.5668,1.5709,1.5714,1.5717,1.5719,1.572,1.5748,1.5746,0,0,0,0,0,0,1.5296,1.5316,1.5416,1.5423,1.538,1.546,1.5474,1.5493,1.5574,1.5587,1.5549,1.5554,1.5655,1.5664,1.5672,1.567,1.5717,1.572,1.5722,1.5749,1.5747,1.5746,0,0,0,0,0,0,1.5292,1.5304,1.5411,1.5371,1.5387,1.546,1.5481,1.5495,1.5513,1.5587,1.5601,1.5554,1.5656,1.5668,1.569,1.5675,1.5722,1.5725,1.575,1.5748,1.5747,1.5664,0,0,0,0,0,0,1.5288,1.5302,1.5299,1.5371,1.5389,1.5426,1.548,1.5496,1.5519,1.5526,1.5595,1.5608,1.5658,1.5685,1.5693,1.5681,1.5728,1.5752,1.575,1.5747,1.5669,1.566,1.5652,0,0,0,0,0,1.5283,1.5272,1.5298,1.531,1.5387,1.5425,1.5435,1.5492,1.5517,1.5516,1.5563,1.5606,1.5676,1.5686,1.5697,1.5685,1.5753,1.575,1.5747,1.5672,1.5662,1.5653,0,0,0,0,0,0,1.5196,1.5282,1.5313,1.5324,1.5366,1.544,1.5439,1.5479,1.5515,1.5521,1.5591,1.5606,1.5621,1.5656,1.5666,1.5683,1.572,1.5719,1.5659,1.565,1.5642,1.5632,1.573,0,0,0,0,0,1.5179,1.5202,1.5276,1.5278,1.5298,1.5365,1.5384,1.5424,1.5471,1.549,1.5539,1.5583,1.5616,1.5635,1.5669,1.5675,1.5692,1.5672,1.5664,1.5657,1.5655,1.5662,1.5654,1.5737,1.5737,1.5737,0,0,1.5142,1.5192,1.5202,1.5262,1.53,1.5323,1.5379,1.5401,1.5419,1.5493,1.5517,1.5555,1.5609,1.5624,1.5633,1.5653,1.5636,1.5653,1.5647,1.5649,1.5658,1.565,1.5643,1.5735,1.5735,1.5735,0,0,1.5086,1.5126,1.5133,1.517,1.5226,1.5271,1.5273,1.5341,1.5369,1.5394,1.545,1.5474,1.5527,1.5564,1.559,1.555,1.5591,1.556,1.5516,1.5522,1.5515,1.551,1.5496,1.549,1.5558,1.5557,1.5557,0,1.5034,1.5069,1.5132,1.515,1.5175,1.5244,1.5252,1.5285,1.535,1.5366,1.5388,1.5458,1.5499,1.5524,1.5514,1.5533,1.5537,1.5551,1.5511,1.5506,1.5502,1.549,1.5484,1.5553,1.5554,1.5554,1.5555,0,1.5002,1.5026,1.5025,1.5085,1.5111,1.5124,1.5189,1.5208,1.5247,1.529,1.5315,1.5368,1.5414,1.5423,1.5462,1.5453,1.5464,1.5498,1.5536,1.5489,1.5478,1.5474,1.5547,1.5549,1.555,1.5551,0,0,1.4892,1.4988,1.4986,1.5015,1.5083,1.5104,1.5121,1.5166,1.518,1.5224,1.524,1.5285,1.5317,1.5346,1.539,1.5395,1.5361,1.5428,1.5431,1.5413,1.5355,1.5328,1.5321,1.5389,1.5388,1.5388,1.535,0,1.4847,1.488,1.4937,1.4952,1.4976,1.5043,1.5058,1.5102,1.5143,1.5171,1.5217,1.5247,1.5287,1.5305,1.5314,1.5363,1.535,1.5367,1.5405,1.5406,1.5387,1.5316,1.5287,1.5249,1.5347,1.5346,1.5345,0,1.4797,1.4836,1.4853,1.4921,1.4933,1.4945,1.4991,1.5016,1.5069,1.5099,1.5132,1.518,1.5203,1.5239,1.5272,1.5282,1.5302,1.5329,1.5329,1.5333,1.5371,1.5317,1.5238,1.5232,1.534,1.534,1.534,0,1.4715,1.4772,1.4789,1.4812,1.4891,1.4899,1.4932,1.4986,1.501,1.5051,1.5067,1.5111,1.5134,1.5167,1.5226,1.5247,1.5253,1.5294,1.5278,1.5277,1.5275,1.5274,1.5196,1.529,1.529,1.529,1.529,0,1.4657,1.4664,1.4753,1.4764,1.4775,1.4842,1.4852,1.4892,1.4939,1.496,1.5022,1.504,1.5118,1.5145,1.5192,1.5212,1.5223,1.5248,1.526,1.5242,1.5238,1.5254,1.5258,1.5288,1.5289,1.5289,1.5289,0,1.4565,1.4625,1.4648,1.4722,1.4741,1.4746,1.481,1.4824,1.487,1.4895,1.4905,1.4977,1.5013,1.5076,1.513,1.5162,1.5173,1.5194,1.5155,1.5162,1.5143,1.5143,1.5072,1.5066,1.5163,1.5162,1.5161,0,1.4523,1.453,1.4605,1.4623,1.4655,1.4683,1.4708,1.4775,1.4798,1.486,1.4866,1.4907,1.4943,1.4998,1.5056,1.5098,1.512,1.5093,1.5127,1.5109,1.5119,1.5117,1.5119,1.5084,1.5083,1.5081,1.508,0,1.4442,1.4472,1.4504,1.4548,1.4575,1.4613,1.4654,1.4665,1.4743,1.4766,1.4803,1.4831,1.4887,1.4927,1.4978,1.5015,1.506,1.507,1.5068,1.5049,1.5025,1.5037,1.5132,1.507,1.5071,1.5072,1.5073,1.5073,1.4374,1.4384,1.4438,1.4473,1.4511,1.4548,1.4565,1.4613,1.4645,1.4695,1.4734,1.4769,1.4824,1.4896,1.4931,1.496,1.4981,1.4978,1.4978,1.4976,1.4969,1.5022,1.4969,1.497,1.497,1.497,1.4971,0,1.4295,1.4334,1.4365,1.4421,1.4448,1.449,1.4538,1.4558,1.4588,1.4635,1.4669,1.4713,1.4753,1.4815,1.486,1.4871,1.4893,1.4881,1.488,1.4888,1.4947,1.4944,1.4862,1.4862,1.4862,1.4862,1.4862,1.4862,1.4257,1.4276,1.4313,1.4352,1.4392,1.4426,1.445,1.4485,1.4523,1.4568,1.4602,1.4642,1.4695,1.4745,1.4784,1.4802,1.4815,1.4795,1.4819,1.4873,1.4883,1.4893,1.489,1.4798,1.4798,1.4757,1.4756,1.4756]}]]